Tracking 28794 objects as of 22-Apr-2024
HD Live streaming from Space Station
objects crossing your sky now

CZ-4B DEB

Track CZ-4B DEB now!
10-day predictions


NORAD ID: 46483
Int'l Code: 2020-067F
Perigee: 473.5 km
Apogee: 556.6 km
Inclination: 97.9 °
Period: 94.8 minutes
Semi major axis: 6886 km
RCS: Unknown
Launch date: September 27, 2020
Source: People's Republic of China (PRC)
Launch site: Taiyaun Space Center, China (TSC)

Note: This is SATELLITE DEBRIS
Your satellite tracking list
Your tracking list is empty




NASA's NSSDC Master Catalog

Two Line Element Set (TLE):
1 46483U 20067F   24112.31590712  .00040846  00000-0  18380-2 0  9992
2 46483  97.9354 235.5069 0060384 331.0969  28.6924 15.19316840195291
Source of the keplerian elements: AFSPC